Location: Buffign�court
(47.8126°N, 6.0176°E)
Time: 01:51:00
(UTC+00:00)

Cosmos 1844 Rocket - Pass Details

Date: 16 June 2021
Orbit: 823 x 846 km, 71.0° (Epoch: 04 August)

Event Time Altitude Azimuth Distance (km) Brightness Sun altitude
Rises 20:34:46 0° 334° (NNW) 3,410 7.6 -7.9°
Reaches altitude 10° 20:37:17 10° 339° (NNW) 2,474 6.5 -8.2°
Maximum altitude 20:42:52 55° 57° (ENE) 1,008 3.1 -8.8°
Enters shadow 20:48:07 12° 135° (SE) 2,350 4.3 -9.4°
